Weather History for Cork, Ireland

Change the Weather History Date:

Tuesday, January 22, 2013

  Actual Average Record
Temperature  
Mean Temperature 34 °F -  
Max Temperature 39 °F 46 °F 51 °F (2005)
Min Temperature 28 °F 37 °F 28 °F (2011)
Degree Days  
Heating Degree Days 32    
Moisture  
Dew Point 31 °F    
Average Humidity 90    
Maximum Humidity 100    
Minimum Humidity 70    
Precipitation  
Precipitation 0.00 in 0.16 in - ()
Sea Level Pressure  
Sea Level Pressure 29.52 in    
Wind  
Wind Speed 7 mph ()    
Max Wind Speed 13 mph    
Max Gust Speed -    
Visibility 6.9 miles    
Events      
Averages and records for this station are not official NWS values.
T = Trace of Precipitation, MM = Missing Value Source: Averaged Metar Reports

Daily Weather History Graph

Daily Weather History Graph

Search for Another Location

Airport:

Trip Planner

Search our weather history database for the weather conditions in past years. The results will help you decide how hot, cold, wet, or windy it might be!

Date:

Astronomy

Jan. 22, 2013 Rise Set
Actual Time 8:26 AM GMT 5:04 PM GMT
Civil Twilight 7:49 AM GMT 5:42 PM GMT
Nautical Twilight 7:07 AM GMT 6:24 PM GMT
Astronomical Twilight 6:27 AM GMT 7:03 PM GMT
Moon 1:12 PM GMT (1/22) 4:41 AM GMT (1/22)
Length of Visible Light 9h 53m
Length of Day
8h 37m
Waxing Gibbous, 81% of the Moon is Illuminated
Jan 22
Waxing Gibbous
Jan 27
Full
Feb 3
Last Quarter
Feb 10
New
Feb 17
First Quarter

Hourly Weather History & Observations

Time (GMT) Temp. Windchill Dew Point Humidity Pressure Visibility Wind Dir Wind Speed Gust Speed Precip Events Conditions
12:00 AM 31 °F - 31 °F 100% 29.38 in 11 mi NW 8.9 mph - -   Partly Cloudy
12:00 AM 30.2 °F 21.9 °F 30.2 °F 100% 29.33 in 6.2 mi NW 9.2 mph - N/A   Mostly Cloudy
12:30 AM 30.2 °F 24.3 °F 30.2 °F 100% 29.36 in 6.2 mi WNW 5.8 mph - N/A   Mostly Cloudy
1:00 AM 32.0 °F 27.5 °F 30.2 °F 93% 29.33 in 6.2 mi North 4.6 mph - N/A   Mostly Cloudy
1:30 AM 32.0 °F 28.7 °F 30.2 °F 93% 29.33 in 6.2 mi North 3.5 mph - N/A   Mostly Cloudy
2:00 AM 32.0 °F 27.5 °F 30.2 °F 93% 29.36 in 6.2 mi NNW 4.6 mph - N/A   Mostly Cloudy
2:30 AM 32.0 °F 27.5 °F 30.2 °F 93% 29.36 in 6.2 mi North 4.6 mph - N/A   Mostly Cloudy
3:00 AM 32.0 °F 24.8 °F 30.2 °F 93% 29.36 in 6.2 mi NW 8.1 mph - N/A   Mostly Cloudy
3:30 AM 32.0 °F 27.5 °F 30.2 °F 93% 29.36 in 6.2 mi NNW 4.6 mph - N/A   Mostly Cloudy
4:00 AM 32.0 °F 26.4 °F 28.4 °F 87% 29.36 in 6.2 mi NW 5.8 mph - N/A   Scattered Clouds
4:30 AM 32.0 °F 26.4 °F 30.2 °F 93% 29.39 in 6.2 mi NW 5.8 mph - N/A   Partly Cloudy
5:00 AM 30.2 °F 22.6 °F 28.4 °F 93% 29.39 in 6.2 mi WNW 8.1 mph - N/A   Partly Cloudy
5:30 AM 30.2 °F 23.4 °F 30.2 °F 100% 29.39 in 6.2 mi NW 6.9 mph - N/A   Partly Cloudy
6:00 AM 30 °F - 29 °F 94% 29.43 in 16 mi North 6.7 mph - -   Scattered Clouds
6:00 AM 30.2 °F 23.4 °F 28.4 °F 93% 29.39 in 6.2 mi North 6.9 mph - N/A   Partly Cloudy
6:30 AM 30.2 °F 21.9 °F 28.4 °F 93% 29.42 in 6.2 mi NW 9.2 mph - N/A   Partly Cloudy
7:00 AM 30.2 °F 20.2 °F 28.4 °F 93% 29.42 in 6.2 mi NNW 12.7 mph - N/A   Partly Cloudy
7:30 AM 28.4 °F 19.1 °F 28.4 °F 100% 29.42 in 6.2 mi NNW 10.4 mph - N/A   Partly Cloudy
8:00 AM 28.4 °F 18.0 °F 28.4 °F 100% 29.44 in 6.2 mi NNW 12.7 mph - N/A   Partly Cloudy
8:30 AM 30.2 °F 21.9 °F 28.4 °F 93% 29.44 in 6.2 mi North 9.2 mph - N/A   Partly Cloudy
9:00 AM 30.2 °F 21.3 °F 30.2 °F 100% 29.47 in 6.2 mi NNW 10.4 mph - N/A   Partly Cloudy
9:30 AM 30.2 °F 20.8 °F 28.4 °F 93% 29.47 in 6.2 mi NNW 11.5 mph - N/A   Partly Cloudy
10:00 AM 30.2 °F 21.9 °F 30.2 °F 100% 29.50 in 6.2 mi NNW 9.2 mph - N/A   Partly Cloudy
10:30 AM 32.0 °F 26.4 °F 30.2 °F 93% 29.50 in 6.2 mi NNW 5.8 mph - N/A   Partly Cloudy
11:00 AM 32.0 °F 26.4 °F 30.2 °F 93% 29.53 in 6.2 mi NW 5.8 mph - N/A   Partly Cloudy
11:30 AM 33.8 °F 29.6 °F 30.2 °F 87% 29.53 in 6.2 mi NW 4.6 mph - N/A   Partly Cloudy
12:00 PM 34 °F - 31 °F 86% 29.57 in 16 mi NW 6.7 mph - -   Scattered Clouds
12:00 PM 33.8 °F 27.7 °F 32.0 °F 93% 29.53 in 6.2 mi NW 6.9 mph - N/A   Partly Cloudy
12:30 PM 35.6 °F 29.2 °F 32.0 °F 87% 29.53 in 6.2 mi NW 8.1 mph - N/A   Partly Cloudy
1:00 PM 37.4 °F 31.4 °F 32.0 °F 81% 29.53 in 6.2 mi NNW 8.1 mph - N/A   Partly Cloudy
1:30 PM 37.4 °F 30.8 °F 32.0 °F 81% 29.56 in 6.2 mi NNW 9.2 mph - N/A   Partly Cloudy
2:00 PM 39.2 °F 33.0 °F 32.0 °F 75% 29.56 in 6.2 mi NW 9.2 mph - N/A   Partly Cloudy
2:30 PM 39.2 °F 33.0 °F 32.0 °F 75% 29.56 in 6.2 mi NW 9.2 mph - N/A   Partly Cloudy
3:00 PM 39.2 °F 31.6 °F 30.2 °F 70% 29.56 in 6.2 mi NW 12.7 mph - N/A   Partly Cloudy
3:30 PM 39.2 °F 32.5 °F 30.2 °F 70% 29.59 in 6.2 mi NW 10.4 mph - N/A   Partly Cloudy
4:00 PM 39.2 °F 32.5 °F 30.2 °F 70% 29.59 in 6.2 mi NW 10.4 mph - N/A   Partly Cloudy
4:30 PM 37.4 °F 30.8 °F 30.2 °F 75% 29.62 in 6.2 mi NW 9.2 mph - N/A   Partly Cloudy
5:00 PM 37.4 °F 30.8 °F 32.0 °F 81% 29.62 in 6.2 mi NW 9.2 mph - N/A   Partly Cloudy
5:30 PM 35.6 °F 28.6 °F 32.0 °F 87% 29.62 in 6.2 mi NW 9.2 mph - N/A   Partly Cloudy
6:00 PM 35 °F - 32 °F 85% 29.68 in 19 mi NNW 4.5 mph - -   Scattered Clouds
6:00 PM 35.6 °F 31.7 °F 32.0 °F 87% 29.65 in 6.2 mi NNW 4.6 mph - N/A   Partly Cloudy
6:30 PM 35.6 °F - 32.0 °F 87% 29.65 in 6.2 mi North 2.3 mph - N/A   Partly Cloudy
7:00 PM 33.8 °F - 32.0 °F 93% 29.65 in 6.2 mi West 2.3 mph - N/A   Partly Cloudy
7:30 PM 33.8 °F 29.6 °F 32.0 °F 93% 29.68 in 6.2 mi NW 4.6 mph - N/A   Partly Cloudy
8:00 PM 33.8 °F 29.6 °F 32.0 °F 93% 29.68 in 6.2 mi NW 4.6 mph - N/A   Partly Cloudy
8:30 PM 33.8 °F 30.8 °F 32.0 °F 93% 29.68 in 6.2 mi NNW 3.5 mph - N/A   Partly Cloudy
9:00 PM 33.8 °F 30.8 °F 32.0 °F 93% 29.68 in 6.2 mi North 3.5 mph - N/A   Partly Cloudy
9:30 PM 32.0 °F 28.7 °F 32.0 °F 100% 29.68 in 6.2 mi East 3.5 mph - N/A   Partly Cloudy
10:00 PM 32.0 °F 27.5 °F 32.0 °F 100% 29.68 in 6.2 mi East 4.6 mph - N/A   Scattered Clouds
10:30 PM 33.8 °F - 32.0 °F 93% 29.71 in 6.2 mi ESE 2.3 mph - N/A   Scattered Clouds
11:00 PM 33.8 °F 30.8 °F 30.2 °F 87% 29.71 in 6.2 mi East 3.5 mph - N/A   Scattered Clouds
11:30 PM 33.8 °F 30.8 °F 30.2 °F 87% 29.71 in 6.2 mi East 3.5 mph - N/A   Mostly Cloudy